Location: Unspecified
(49.2170°N, 0.0000°E)
Time: 19:53:31
(UTC+00:00)

Tiros 1 despin weight - Pass Details

Date: 28 January 2021
Orbit: 593 x 642 km, 48.2° (Epoch: 26 February)

Event Time Altitude Azimuth Distance (km) Brightness Sun altitude
Rises 12:55:08 0° 224° (SW) 2,904 ? 22.1°
Reaches altitude 10° 12:57:36 10° 216° (SW) 1,992 ? 22.0°
Maximum altitude 13:01:44 34° 151° (SSE) 1,022 ? 21.9°
Drops below altitude 10° 13:05:50 10° 87° (E) 1,970 ? 21.7°
Sets 13:08:16 0° 78° (ENE) 2,868 ? 21.6°
